Showing default

ARCSTONE, 64540

Orbit data source: Space-Track

ARCSTONE, 64540 is a payload satellite owned by NASA LaRC (US) in SSO that was launched on Mon, 23 Jun 2025 UTC via an FALCON 9 launch vehicle from the Air Force Western Test Range (AFWTR). Payload-class satellites include a variety of spacecraft equipped with specific instruments for various scientific and technological missions. These include communications satellites like Starlink; space stations such as the ISS; scientific satellites like the Hubble; Earth observation satellites from companies like Planet Labs, Umbra, and HawkEye 360; GPS; miniature CubeSats for education and research; and military/defense satellites.

Loading next visibility...
Identifier
64540, 2025-135N
Orbit
SSO
Country
Flag of USUS
Related business
Manufacturer
Blue Canyon
Mission
Operational Civil Astronomy
Bus & Motor
CUBESAT 6U, Unknown motor
Mass
5 kg wet, 5 kg dry
Launch date (UTC)
2025-06-23 (11 months ago)
Launch vehicle
FALCON 9
Launch site
Air Force Western Test Range (AFWTR)
Object type
Payload
Rocket body
Debris
Shape & HBR
Box + 2 Pan, 0.7 m
Radar Cross Section
0.072 m², Medium (>0.1 m² and < 1m²)

Expand to show TLE details & history
Last TLE update: 8 hours ago

TLE from 8 hours ago
0 ARCSTONE
1 64540U 25135N   26133.23703088  .00009490  00000-0  31498-3 0  9991
2 64540  97.4573 250.4946 0001785 319.6535  40.4574 15.31446956 49684
Epoch: 2026-05-13T05:41Z
TLE epoch observation values (Epoch: 2026-05-13T05:41:19.468Z)
Latitude
0.00005°
Longitude
-65.83646°
Altitude
473.668 km
Speed
7.63 km/s
True Right ascension
16h 41m 58s
True Declination
0° 00' 00"
Sunlit
Object was in full shadow at epoch
Visualization orbit readout
Latitude
Unknown
Longitude
Unknown
Altitude
Unknown
Speed
Unknown
Apparent Right ascension
Unknown
Apparent Declination
Unknown
Sunlit
N/A
Visualization observer readout
Local Sidereal Time
22:08:03
Azimuth
Unknown
Elevation
Unknown
Doppler factor
Unknown
Orbital elements
Apogee altitude
469.669 km
Perigee altitude
467.225 km
Semi-major axis
6,846.584 km
Eccentricity
0.00018
Inclination
97.4573°
RAAN
250.4946°
Arg. of periapsis
319.6535°
True anomaly
40.47067°
Mean anomaly
40.4574°
Eccentric anomaly
40.46404°
Mean motion
3.83118 °/min
Orbital period
93.97 mins
BSTAR
0.00031498
Loading maneuver chart data...
Computing Atmospheric mass density...
Loading historical data...
Loading historical data...
Loading historical data...
Loading historical data...
Loading historical data...
Loading historical data...
Loading historical data...

Documentation

Showing up to 5 results
|